Location: Unspecified
(0.0000°N, 0.0000°E)
Time: 11:27:04
(UTC+00:00)

BREEZE-M R/B - Visible Passes

Search period start: 25 January 2026 00:00
Search period end: 04 February 2026 00:00
Orbit: 1691 x 64725 km, 26.7° (Epoch: 24 January)

Date Brightness Start Highest point End Pass type
(mag) Time Alt. Az. Time Alt. Az. Time Alt. Az.
25 Jan ? 14:40:11 10° ESE 20:32:39 67° E 21:29:34 53° ENE visible
26 Jan ? 15:26:16 10° E 18:09:50 29° E 19:16:48 15° ENE visible
27 Jan ? 20:09:01 10° WSW 20:32:45 11° WSW 20:59:58 10° WSW visible
28 Jan ? 16:31:01 10° WSW 18:19:33 40° SW 22:45:21 10° WSW visible
29 Jan ? 13:57:13 10° WSW 17:00:09 59° SSW 23:24:50 10° WSW visible
30 Jan ? 11:32:37 10° W 17:48:26 65° S 23:55:51 10° WSW visible
31 Jan ? 09:11:23 10° WNW 18:22:11 68° S 00:27:38 10° WSW visible
1 Feb ? 12:26:06 10° ESE 18:51:16 71° S 01:14:34 10° W visible
2 Feb ? 04:28:36 17° NNW 04:33:06 20° N 04:39:27 10° NE visible
2 Feb ? 13:02:09 10° ESE 19:23:16 75° S 02:17:43 10° NE visible
3 Feb ? 13:30:55 10° ESE 20:14:18 81° SSW 23:21:23 68° NNW visible
